Showing default

IRIDIUM 180, 43922

Orbit data source: Space-Track

IRIDIUM 180, 43922 is a payload satellite owned by Iridium (US) in LEO that was launched on Fri, 11 Jan 2019 UTC via an FALCON 9 launch vehicle from the Air Force Western Test Range (AFWTR). Payload-class satellites include a variety of spacecraft equipped with specific instruments for various scientific and technological missions. These include communications satellites like Starlink; space stations such as the ISS; scientific satellites like the Hubble; Earth observation satellites from companies like Planet Labs, Umbra, and HawkEye 360; GPS; miniature CubeSats for education and research; and military/defense satellites.

Loading next visibility...
Identifier
43922, 2019-002A
Orbit
LEO
Country
Flag of USUS
Related business
Manufacturer
NGIS SSG Gilbert
Mission
Operational Commercial Communications
Bus & Motor
ELITEBUS, Unknown motor
Mass
860 kg wet, 700 kg dry
Launch date (UTC)
2019-01-11 (7 years ago)
Launch vehicle
FALCON 9
Launch site
Air Force Western Test Range (AFWTR)
Object type
Payload
Rocket body
Debris
Shape & HBR
Trap Box + 2 Pan, 4.8 m
Radar Cross Section
10.154 m², Large (>1 m²)

Expand to show TLE details & history
Last TLE update: 20 hours ago

TLE from 20 hours ago
0 IRIDIUM 180
1 43922U 19002A   26072.27401608  .00000070  00000-0  17851-4 0  9990
2 43922  86.3979  33.6667 0002261  84.6164 275.5290 14.34217771375243
Epoch: 2026-03-13T06:34Z
TLE epoch observation values (Epoch: 2026-03-13T06:34:34.989Z)
Latitude
0.00002°
Longitude
124.10901°
Altitude
780.562 km
Speed
7.464 km/s
True Right ascension
02h 14m 40s
True Declination
0° 00' 00"
Sunlit
Object was in daylight at epoch
Visualization orbit readout
Latitude
Unknown
Longitude
Unknown
Altitude
Unknown
Speed
Unknown
Apparent Right ascension
Unknown
Apparent Declination
Unknown
Sunlit
N/A
Visualization observer readout
Local Sidereal Time
06:36:27
Azimuth
Unknown
Elevation
Unknown
Doppler factor
Unknown
Orbital elements
Apogee altitude
776.249 km
Perigee altitude
773.014 km
Semi-major axis
7,152.769 km
Eccentricity
0.00023
Inclination
86.3979°
RAAN
33.6667°
Arg. of periapsis
84.6164°
True anomaly
275.50321°
Mean anomaly
275.529°
Eccentric anomaly
275.51611°
Mean motion
3.58783 °/min
Orbital period
100.34 mins
BSTAR
0.000017851
Loading maneuver chart data...
Computing Atmospheric mass density...
Loading historical data...
Loading historical data...
Loading historical data...
Loading historical data...
Loading historical data...
Loading historical data...
Loading historical data...

Documentation

Showing up to 5 results
|